Theta_e
311 311 312 312 312 313 313 313 313 312 308 316 317 319 311 311 310 321 325 324 318 311 304 305 300 303 305 308 307 309 307 305 307 304 306 303 305 303 303 302 299 302 301 300 298 299 295 297 297 299 299 300 303 305 304 305 302 303 300 301 304 304 295 291 292 296 298 302 303 303 302 300 298 298 298 297 293 294 291 290 292 288 288 286 286 283 288
311 311 312 312 313 312 313 313 313 312 308 315 316 313 310 311 312 314 324 324 316 304 294 296 299 303 306 306 305 307 307 306 305 304 305 304 302 301 301 302 304 300 303 300 297 301 288 299 298 297 300 299 305 305 304 304 301 301 300 296 304 292 296 293 287 288 291 294 296 297 299 299 296 295 299 298 297 296 296 295 296 288 289 288 285 280 287
311 311 312 312 312 312 312 312 312 311 309 311 313 309 313 313 315 313 316 322 316 300 303 301 300 303 303 304 302 304 305 308 307 306 304 307 305 303 301 302 304 300 303 299 300 302 299 295 301 300 300 300 304 305 303 304 300 305 304 303 304 296 295 293 285 282 280 280 282 285 287 291 296 297 296 297 297 295 294 288 290 285 290 291 287 285 294
310 311 311 312 312 311 311 311 311 311 310 307 311 312 310 308 298 309 311 315 312 309 310 306 303 302 303 297 302 304 302 305 308 308 306 307 307 305 304 304 304 301 301 299 299 298 301 298 297 299 298 301 303 305 306 303 303 305 305 303 304 296 299 297 293 289 287 288 292 298 296 295 289 293 295 296 298 298 298 295 290 286 289 288 290 292 291
311 311 311 312 311 311 310 310 310 309 309 306 312 312 311 312 303 301 299 310 309 307 307 304 305 300 305 295 302 300 302 303 304 309 303 307 306 305 304 303 300 299 299 298 297 299 298 300 299 299 298 302 303 305 305 305 305 305 302 304 302 298 295 297 296 295 295 296 297 297 298 294 296 294 294 296 296 297 296 289 288 294 291 285 292 295 292
310 310 310 311 311 311 311 311 310 309 308 306 310 307 312 302 306 308 312 304 299 301 301 306 305 306 305 301 304 302 301 302 298 306 307 307 307 301 303 302 302 301 299 299 293 296 296 298 294 300 300 299 303 302 304 302 306 304 303 306 300 297 291 297 296 296 298 298 297 299 298 297 296 296 296 295 296 296 293 293 295 295 289 287 294 294 292
310 310 310 310 311 311 311 310 310 309 307 307 312 305 311 310 309 310 314 303 307 306 305 307 305 305 305 302 303 302 302 300 304 303 303 304 303 305 293 299 301 301 302 300 296 297 291 290 298 298 299 299 299 298 300 304 306 304 303 304 306 299 294 298 297 295 297 299 299 299 297 297 296 297 297 297 296 295 296 296 297 296 294 296 297 296 295
310 310 310 311 311 311 311 311 310 308 305 307 308 307 306 307 304 303 312 309 307 308 308 307 305 302 304 297 302 302 302 301 303 305 303 296 302 305 300 300 301 302 301 301 296 298 298 297 292 299 299 299 300 299 300 302 304 304 302 303 305 297 290 296 297 293 294 298 299 298 297 297 295 297 297 297 296 296 297 296 297 297 296 297 297 295 294
309 309 310 312 312 312 311 311 311 308 306 308 307 310 313 313 315 315 307 304 305 306 306 303 302 300 302 299 302 302 302 302 304 304 306 304 302 303 301 302 302 302 301 301 300 302 301 301 301 301 301 295 301 298 301 303 299 302 301 301 302 300 294 300 298 290 291 296 296 297 298 297 296 296 295 295 294 293 296 293 297 295 294 296 295 293 293
309 309 310 311 312 312 311 311 310 308 307 308 310 307 316 316 317 316 310 301 303 302 306 305 302 296 302 303 303 302 302 304 304 297 305 306 308 307 305 304 302 301 301 300 302 305 305 304 305 304 304 304 304 304 303 303 302 300 300 303 299 300 297 292 292 289 288 296 295 296 295 294 290 291 294 295 296 296 297 298 298 297 298 291 289 291 298
309 309 310 311 312 311 311 311 310 308 308 307 308 310 314 311 309 309 309 300 302 303 303 302 301 303 305 304 303 304 303 304 304 298 296 305 306 308 307 305 301 300 301 304 309 310 309 308 306 306 304 304 303 303 304 305 305 304 302 301 300 301 299 293 297 288 288 295 295 296 291 284 285 296 299 297 296 296 294 295 297 299 300 295 299 299 302
308 308 309 311 311 311 311 310 310 308 308 312 314 311 314 316 313 311 307 297 297 304 302 300 301 304 303 304 304 303 303 303 303 306 302 304 306 308 307 306 304 296 307 311 310 309 309 307 304 303 302 302 302 303 304 303 304 305 305 301 300 299 298 294 297 290 288 293 293 287 282 284 297 301 301 300 299 299 297 298 298 299 301 300 299 299 300
308 308 309 310 311 311 311 310 310 308 308 312 311 308 314 316 311 309 307 303 297 301 299 301 304 304 305 305 304 304 305 305 307 307 306 305 305 307 308 306 304 306 310 308 308 306 301 299 300 300 300 301 302 303 302 303 303 306 306 305 301 295 294 292 292 293 292 289 288 280 283 294 300 300 301 301 299 299 298 295 298 300 300 301 299 300 301
308 308 308 309 310 311 311 310 310 309 308 309 308 310 312 312 308 308 307 300 298 303 304 303 304 303 304 303 304 305 306 305 306 307 304 308 305 306 309 308 309 311 310 309 306 303 297 297 292 295 297 298 298 296 300 302 303 303 304 304 304 302 300 296 291 296 286 288 288 287 294 293 296 296 298 299 295 296 294 289 293 301 301 301 299 299 300
307 308 308 309 309 310 311 310 309 309 308 308 309 309 310 312 312 309 310 307 298 301 304 296 301 304 305 304 305 303 303 304 303 302 306 308 306 308 309 310 311 310 312 306 302 301 295 295 289 288 291 291 286 289 298 296 301 304 304 305 304 304 297 299 291 289 293 288 286 287 286 284 290 298 302 303 302 300 301 297 291 301 301 302 299 299 301
308 308 308 309 309 310 310 310 310 309 309 308 309 308 310 313 314 312 309 306 302 294 299 305 307 306 304 305 307 304 301 299 302 303 303 304 305 308 310 312 312 311 308 305 302 297 294 290 288 288 286 289 295 292 291 297 296 301 303 304 304 304 303 300 294 290 291 288 285 285 282 286 296 299 302 304 303 302 303 294 288 299 301 301 300 299 300
308 308 308 308 309 309 310 310 310 310 309 308 308 309 308 314 311 309 307 306 304 297 308 310 310 309 306 304 306 303 304 299 302 297 297 300 304 306 309 311 312 310 307 303 301 296 292 291 294 292 293 295 291 289 295 294 293 295 300 302 302 300 297 294 292 289 290 289 286 285 288 287 297 301 302 302 305 303 299 286 286 298 302 301 301 299 299
307 308 308 308 308 309 309 310 310 310 310 309 309 308 308 314 314 312 307 304 300 300 305 309 307 305 303 304 303 307 308 306 304 305 301 304 304 304 305 307 304 307 309 298 298 293 292 291 289 288 287 297 298 297 287 293 290 290 293 296 295 294 294 294 290 290 290 287 288 290 290 296 303 302 303 303 304 301 287 284 290 302 303 303 301 300 301
307 307 308 308 308 308 309 309 309 309 310 309 310 308 307 311 313 312 308 304 302 296 305 309 310 308 310 312 309 309 309 307 306 299 298 299 302 306 307 306 307 299 304 297 298 292 291 291 297 295 291 293 297 289 296 291 290 296 297 294 294 295 295 293 293 290 289 290 287 288 291 301 304 304 304 305 298 287 287 297 305 304 304 304 304 302 302
307 307 307 308 308 309 309 309 309 309 309 309 308 304 307 311 312 312 306 301 303 301 305 306 308 305 309 307 305 305 306 306 306 302 299 296 307 306 303 297 304 304 302 302 292 296 292 290 293 298 292 293 296 300 294 295 298 295 295 298 293 294 290 290 290 292 292 290 288 286 283 295 306 304 302 303 290 293 302 304 304 305 304 303 303 304 304
307 307 307 308 308 308 309 308 308 308 309 309 308 306 304 310 312 313 312 307 302 297 301 309 308 306 307 308 310 310 308 304 306 303 305 305 308 304 293 293 302 301 296 297 291 292 293 291 294 293 297 296 301 297 291 292 295 301 298 297 296 300 291 291 293 296 288 288 286 286 295 301 307 303 294 300 301 304 305 303 303 305 306 305 304 303 305
307 307 307 308 308 308 308 308 308 308 308 309 308 307 302 308 311 313 312 311 303 298 303 309 310 308 310 311 312 314 311 312 314 315 309 304 310 305 303 305 304 303 304 303 299 297 299 298 299 294 292 295 301 293 297 291 289 297 301 300 289 300 295 297 291 298 292 290 294 299 304 305 306 306 304 305 308 308 308 306 305 304 303 305 303 303 306
306 307 307 307 308 308 308 308 308 308 308 308 307 305 302 306 308 313 312 303 307 307 309 308 310 310 311 311 314 315 315 316 316 316 314 308 303 307 305 304 306 309 309 308 301 300 299 299 293 299 295 297 294 294 297 295 291 296 292 301 298 304 303 306 300 297 302 303 303 305 304 305 306 307 308 307 308 308 309 307 305 305 306 306 305 306 306
306 306 307 307 308 308 308 308 308 308 307 308 307 306 305 307 309 310 308 306 302 296 301 305 303 298 303 305 310 315 315 314 314 315 318 316 302 302 308 309 312 309 308 310 314 305 303 301 300 301 294 299 300 294 290 290 291 298 297 296 299 302 304 301 296 301 296 291 303 302 303 305 306 305 308 309 309 308 309 308 306 306 308 307 308 307 307
306 306 307 307 307 308 308 308 308 307 307 307 308 308 308 308 310 309 304 294 294 294 290 296 300 306 309 312 312 310 313 316 317 316 314 313 311 307 304 313 313 310 308 311 314 309 302 297 300 299 293 302 302 292 299 294 294 301 293 296 298 297 306 300 300 299 294 294 301 304 305 306 307 306 305 305 307 307 308 309 309 308 310 309 308 308 306
306 306 306 307 307 307 307 307 307 307 307 307 307 306 305 304 310 311 308 306 305 301 292 292 298 308 310 308 307 309 312 313 315 315 313 312 313 313 312 313 312 317 313 312 312 303 300 299 299 298 295 296 305 296 295 300 298 302 298 297 303 302 303 295 300 297 300 303 303 303 305 305 305 306 307 307 308 308 308 309 309 307 307 308 308 308 307
306 306 306 306 306 306 307 307 307 307 307 307 308 308 307 308 311 308 305 304 299 293 295 292 299 304 306 304 308 311 313 312 312 313 312 312 311 312 312 311 310 311 311 309 309 305 302 300 299 299 301 300 303 301 302 300 299 296 295 301 306 302 297 302 300 293 294 295 300 303 296 295 302 305 307 308 309 308 308 308 308 307 306 307 307 306 308
306 306 306 306 306 306 306 307 307 307 307 307 307 308 309 308 309 310 311 309 303 294 295 296 298 303 308 305 310 311 312 313 313 312 311 312 311 310 309 309 310 307 307 305 300 298 298 297 298 303 304 305 301 298 304 303 303 299 299 300 304 300 302 300 295 295 294 302 305 309 306 305 306 306 310 312 311 309 307 306 307 308 308 308 308 306 306
305 306 306 306 306 306 307 307 307 307 307 306 307 305 305 308 310 311 311 311 310 304 299 299 302 300 294 302 310 310 311 311 311 311 311 310 311 310 309 308 307 308 308 305 301 300 299 299 303 300 301 310 303 297 299 294 294 293 298 303 304 306 309 306 305 305 305 307 307 308 307 303 307 308 309 309 310 308 308 307 308 309 309 308 308 308 307
305 305 305 305 305 306 306 306 306 306 306 307 305 300 297 301 310 309 311 311 309 305 296 293 290 292 305 305 305 309 309 310 310 310 309 309 309 309 309 308 307 308 307 302 301 298 300 300 298 306 307 312 302 297 295 297 295 298 303 304 305 306 306 308 308 305 303 308 309 311 311 309 309 310 310 310 311 310 308 307 308 308 309 310 308 308 308
305 305 305 305 305 306 306 306 306 306 306 305 301 293 292 290 301 312 310 312 312 306 298 296 292 297 297 304 305 304 306 308 308 308 308 308 308 308 309 309 308 307 301 302 301 301 300 298 298 302 307 306 302 296 297 296 294 297 302 305 305 305 305 306 308 308 308 308 308 309 308 309 311 309 309 310 310 310 310 309 309 310 311 309 308 309 308
305 305 305 305 305 305 305 306 306 306 306 302 298 297 299 301 306 311 312 310 312 305 294 291 291 292 292 297 303 307 307 308 308 307 308 309 306 308 307 307 305 307 303 301 301 300 299 299 301 302 302 305 302 299 299 297 293 296 303 304 306 306 307 307 308 308 309 309 308 306 305 306 308 306 305 310 310 312 312 310 310 310 310 310 310 310 310
304 305 305 305 305 305 305 305 305 305 304 306 307 307 308 308 307 310 310 312 309 301 302 293 289 292 291 298 305 306 308 307 305 306 303 308 305 307 304 307 306 306 310 303 299 297 303 298 302 299 303 307 299 295 297 295 297 302 304 305 306 307 307 308 308 308 308 308 308 304 303 304 306 309 310 311 311 309 310 308 309 309 310 308 308 308 308
304 304 305 305 305 305 304 305 305 305 305 302 298 302 307 308 308 308 312 310 305 304 298 293 288 288 290 301 297 305 309 302 302 304 298 307 308 306 302 304 305 300 303 300 301 300 302 303 298 300 303 300 302 296 292 297 302 303 304 305 306 307 307 307 306 306 307 307 309 309 308 309 310 310 310 310 309 310 310 310 309 308 307 307 307 308 308
304 304 304 304 305 305 304 304 304 302 298 299 300 305 308 308 308 308 309 306 296 293 293 293 293 289 289 290 291 298 309 304 300 303 298 303 309 304 305 299 302 297 299 307 299 299 298 298 304 297 294 300 296 292 294 299 301 303 304 304 306 306 307 305 306 307 308 308 307 307 308 308 307 307 308 309 309 308 307 308 308 307 306 306 307 307 308
303 304 304 305 304 304 303 302 302 300 297 297 300 306 308 309 308 310 311 311 305 296 292 292 292 289 291 287 288 296 307 302 304 304 303 303 304 307 305 301 295 299 306 302 295 300 297 304 300 294 300 294 292 296 299 302 302 303 304 304 306 306 307 306 307 307 308 309 309 308 306 307 306 306 307 308 308 308 307 307 308 308 307 307 307 308 308
303 304 305 304 303 300 295 296 301 300 300 304 306 308 308 309 311 310 308 305 307 307 298 294 290 291 293 292 293 301 303 294 303 299 302 298 297 301 301 297 294 298 298 296 296 295 301 307 298 294 294 292 295 301 303 303 303 303 304 305 307 308 308 308 309 308 307 308 308 307 306 305 305 306 306 305 306 308 308 307 307 307 306 306 308 308 309
304 303 303 299 297 290 290 293 298 303 307 307 307 305 305 303 294 295 296 294 302 301 297 298 290 295 299 296 290 304 301 297 302 294 297 300 297 295 300 297 297 296 291 294 297 304 300 299 296 294 294 301 303 303 304 305 305 306 306 306 307 308 308 308 308 306 305 304 304 306 305 305 304 305 304 304 305 305 308 309 309 309 308 308 309 309 309
301 301 300 298 293 290 291 297 305 308 306 309 307 297 293 295 293 289 290 294 294 291 296 294 291 296 296 295 296 304 302 299 295 298 293 301 296 292 297 292 297 296 293 292 296 305 294 294 295 295 293 299 300 303 305 306 306 306 307 308 308 308 308 308 309 307 305 304 305 307 307 304 304 304 305 305 305 306 306 307 308 308 309 309 309 309 310
298 294 292 292 291 294 302 307 307 306 303 295 296 293 286 290 288 286 295 289 289 293 296 289 296 296 297 295 295 296 305 300 293 293 295 298 304 294 295 295 296 293 289 289 293 303 293 290 294 293 292 298 300 305 305 306 305 307 308 308 308 309 309 308 308 309 308 308 308 308 308 307 307 306 305 305 305 305 305 306 307 308 308 309 310 310 310
296 296 296 292 297 300 302 309 307 304 297 291 288 288 287 284 290 292 289 287 288 290 298 296 297 295 297 298 298 294 305 306 304 307 300 293 304 301 294 289 296 291 289 289 296 297 295 292 292 292 293 300 301 304 305 306 306 307 308 309 309 309 309 309 309 310 309 307 307 308 307 307 307 307 307 308 307 306 307 307 307 308 308 308 310 312 312
298 298 299 302 302 303 302 302 296 292 290 290 286 283 287 288 291 291 291 286 286 291 294 296 292 294 295 298 298 300 300 306 304 299 295 292 298 295 291 293 294 289 286 293 300 295 294 289 290 291 298 301 304 306 306 306 307 307 308 309 310 310 310 309 309 309 309 308 308 308 308 308 308 307 308 308 308 308 308 308 308 309 308 309 310 310 310
303 302 304 300 299 295 295 289 288 288 283 283 283 281 286 284 287 287 288 293 298 295 295 301 300 302 303 304 300 303 302 307 297 293 295 292 298 296 292 291 290 286 290 298 293 292 290 289 289 294 300 302 304 305 306 306 307 307 309 312 312 313 311 310 309 309 310 309 309 309 309 309 309 308 308 309 308 308 308 308 308 309 309 309 309 310 311
303 301 296 292 290 291 292 281 292 286 284 286 284 280 284 283 287 289 288 290 294 294 297 294 296 295 292 301 298 296 298 299 297 294 295 297 294 290 290 287 288 296 300 292 291 288 290 292 294 298 301 303 304 305 306 307 308 309 309 309 310 311 310 310 310 309 309 310 310 310 310 309 309 309 308 308 308 308 308 308 310 311 313 311 309 310 311
293 290 290 288 285 288 286 280 291 285 281 284 287 285 286 284 287 290 289 296 296 294 297 298 298 296 295 300 301 300 297 293 298 292 289 293 290 292 289 288 293 294 290 288 289 290 291 290 298 300 302 302 304 306 307 307 307 308 308 309 309 309 310 309 309 309 308 308 309 309 309 309 309 308 308 308 308 308 308 309 309 310 311 311 311 311 313
289 287 287 283 280 285 284 282 285 282 287 289 288 290 289 290 292 292 297 299 297 297 296 297 298 298 296 299 295 294 297 296 293 292 295 293 289 287 293 297 295 289 288 289 287 287 289 294 297 299 302 304 305 305 306 308 308 308 308 307 307 308 309 309 309 309 309 309 309 309 309 309 308 308 308 309 308 308 308 310 311 310 311 310 310 311 312
290 290 289 287 283 286 288 283 285 288 290 291 293 293 293 294 295 296 298 299 297 299 299 300 299 298 295 295 294 295 297 297 291 294 295 289 288 291 295 291 286 288 285 285 286 288 292 296 299 302 304 305 305 307 307 308 308 308 308 309 310 309 309 309 309 308 309 309 309 309 308 308 308 309 309 308 308 309 309 311 313 313 312 311 311 311 312
285 289 289 281 281 285 283 286 293 294 295 295 294 296 296 297 296 294 298 300 300 301 299 299 298 298 297 301 299 292 293 295 291 291 293 290 292 289 288 287 287 289 290 288 289 293 295 298 300 302 305 306 306 306 306 308 309 309 309 309 309 309 309 309 309 309 309 308 308 308 308 309 308 308 308 308 309 309 310 310 311 313 313 312 312 312 311
291 288 285 284 287 288 288 292 292 290 293 296 296 297 296 295 294 296 299 302 302 300 301 299 297 298 293 294 292 291 288 292 287 287 291 288 286 284 285 283 285 285 290 293 293 295 297 300 303 304 306 306 306 307 307 307 309 310 309 309 310 309 309 309 310 310 309 309 309 309 309 309 309 308 308 308 308 309 310 312 312 312 313 312 311 310 310
288 287 289 288 287 288 292 294 292 289 292 294 295 294 296 295 295 298 302 300 299 300 302 299 300 293 292 292 286 288 287 290 288 290 287 286 287 289 288 284 287 288 290 295 296 298 300 302 304 304 305 306 307 307 308 309 307 309 310 310 309 309 309 309 309 309 309 309 310 310 310 310 309 308 308 308 308 310 311 311 311 312 312 312 311 310 309
290 289 289 293 288 287 291 286 287 288 290 291 293 294 296 296 297 298 303 301 305 299 292 292 292 290 288 287 287 284 286 292 289 287 287 287 291 289 287 286 289 293 295 298 300 301 302 303 304 303 305 306 308 309 308 309 309 309 310 310 310 310 310 310 309 309 310 310 311 303 310 309 310 310 310 310 310 310 310 310 311 312 312 311 311 311 311
287 284 285 290 293 293 293 294 294 293 294 295 295 297 299 298 301 304 308 305 298 293 290 294 292 289 286 285 287 291 293 291 288 289 286 290 293 289 289 291 294 296 297 298 299 301 302 304 306 307 307 306 308 308 309 310 309 309 309 310 310 310 310 310 309 309 309 310 310 311 311 312 312 311 310 311 310 310 308 309 309 311 312 311 312 312 312
Wind_Speed
11 11 12 10 9 10 8 8 8 7 8 8 7 8 6 7 8 6 11 8 5 5 7 8 5 8 7 2 7 5 4 5 1 4 4 5 2 2 4 3 3 1 4 5 6 5 5 9 5 2 3 5 4 5 5 6 7 5 3 5 4 3 2 4 6 6 7 4 5 4 6 7 5 3 3 3 2 3 3 1 3 6 2 2 4 4 2
10 11 11 10 9 9 9 9 9 6 2 5 8 8 8 8 8 4 6 6 4 6 4 4 5 5 7 2 9 4 1 3 3 4 5 5 1 4 3 5 4 5 3 5 6 4 2 2 2 2 2 5 6 3 3 2 5 3 5 4 4 3 1 6 6 4 3 3 4 5 6 8 3 2 2 1 4 4 5 6 9 7 2 2 3 6 0
11 10 10 10 8 8 10 10 10 6 5 3 5 5 6 8 7 8 4 6 6 7 7 7 5 8 9 10 5 4 2 1 4 5 6 6 5 3 6 7 4 4 3 6 6 6 4 5 5 5 2 3 9 5 5 4 6 6 8 5 6 5 5 5 5 6 6 6 6 5 3 4 3 1 3 4 5 4 3 2 5 5 2 6 3 0 1
12 11 10 9 8 9 9 10 10 6 6 3 4 6 6 7 4 5 8 7 7 8 8 9 8 7 8 5 8 8 7 6 6 6 8 6 6 7 5 6 8 6 3 4 5 6 5 3 3 3 4 4 5 3 6 1 2 9 6 4 3 3 5 5 4 4 4 4 4 3 4 5 3 3 3 4 2 5 4 3 3 2 4 3 3 3 2
12 11 11 9 8 8 8 9 9 6 5 0 4 6 6 7 7 4 4 8 6 7 8 10 9 7 6 4 5 8 8 4 4 6 6 5 8 6 7 6 6 3 4 7 7 6 7 7 5 4 6 5 6 1 6 5 4 6 3 4 4 5 5 4 5 5 6 4 5 3 3 5 4 5 4 5 5 3 5 3 2 7 5 2 2 5 2
12 12 11 10 9 10 9 9 8 6 4 2 3 5 6 6 6 9 4 3 3 6 5 8 8 9 6 7 7 8 7 6 5 3 6 5 6 6 7 10 7 7 6 5 5 5 8 5 4 4 5 6 4 5 3 7 8 2 4 3 2 4 4 5 5 7 5 6 6 3 4 4 5 5 3 5 4 5 6 4 6 5 3 3 5 9 7
11 11 11 12 12 10 9 7 6 5 4 2 5 5 6 9 8 7 4 4 6 8 5 5 8 8 8 7 7 9 8 10 8 5 5 4 7 8 4 7 8 8 7 7 7 7 6 4 5 5 2 4 5 5 5 5 4 4 4 3 3 4 5 6 5 8 8 7 7 5 5 4 4 5 4 3 5 5 5 6 6 6 6 6 7 4 4
10 11 12 13 11 9 8 8 6 5 5 3 5 8 6 5 4 5 5 8 9 9 7 6 6 8 4 3 8 8 8 10 10 6 4 4 7 7 10 8 7 8 7 7 7 7 8 8 5 4 3 4 5 6 6 4 2 4 5 2 1 2 0 1 6 7 8 7 5 6 7 6 6 4 5 4 4 4 3 4 6 6 7 5 5 5 1
10 11 11 11 6 5 7 7 6 8 8 4 6 6 9 8 7 4 6 8 8 8 9 8 7 7 6 7 7 8 10 11 7 8 5 8 7 6 10 7 7 8 7 6 8 7 8 8 9 8 6 5 2 4 1 3 5 4 4 3 4 3 5 5 5 5 6 6 4 7 6 6 7 5 4 4 1 4 3 3 4 4 5 5 4 3 6
10 10 10 10 7 6 7 8 8 11 10 5 4 9 7 8 8 5 5 7 6 9 10 10 7 6 8 8 8 6 8 9 9 5 4 7 9 8 8 7 7 7 7 9 7 5 6 7 8 8 8 8 4 4 6 8 5 4 5 3 5 5 5 4 3 4 6 3 3 6 5 5 6 5 4 1 1 2 3 4 3 2 4 2 3 6 8
10 10 10 9 7 6 7 8 10 12 8 6 5 7 7 6 7 7 6 8 9 10 9 8 9 7 6 9 11 9 10 10 7 4 1 4 5 8 9 8 7 6 7 5 6 5 6 8 10 11 9 10 9 8 7 10 8 6 5 4 4 5 6 4 5 4 5 7 4 5 5 6 1 5 2 1 3 2 4 4 4 2 3 3 3 2 3
9 10 10 9 8 7 6 6 10 13 10 8 6 9 7 8 8 7 6 6 7 10 11 10 9 7 9 9 7 7 9 8 9 5 5 3 5 5 8 7 4 5 2 3 6 8 6 6 10 10 11 11 10 7 8 9 8 7 6 6 5 6 5 5 5 4 5 5 6 5 6 3 6 3 2 1 1 4 5 6 6 5 4 4 4 2 2
9 9 9 9 8 6 4 3 8 12 12 7 6 7 7 9 7 6 7 8 8 9 9 11 13 13 10 9 7 8 10 11 8 2 3 6 6 6 5 5 7 6 1 8 7 8 7 7 7 8 9 9 10 10 11 11 10 9 8 7 7 3 3 3 4 4 4 6 3 5 2 6 5 4 2 4 4 1 5 6 8 9 5 3 4 2 4
9 8 8 8 7 5 4 3 6 9 12 8 5 6 6 7 6 6 6 4 7 10 11 12 12 12 11 11 10 9 8 9 9 6 7 5 8 8 7 5 7 3 4 6 8 6 7 5 6 6 8 6 5 6 9 11 11 11 11 10 7 8 6 3 4 3 5 3 5 7 4 3 6 5 4 4 0 1 3 4 6 7 3 2 4 3 8
9 9 7 7 7 6 5 4 6 8 9 7 4 6 6 6 7 7 7 6 6 8 10 9 9 10 9 9 8 8 8 9 8 7 8 7 8 7 8 6 6 7 7 5 6 3 5 4 4 4 5 5 4 5 5 8 9 13 12 10 9 7 7 2 4 3 5 6 5 5 3 5 5 2 6 2 3 1 3 3 4 5 6 4 1 1 6
9 8 8 7 7 7 7 5 6 7 8 6 5 5 6 6 6 6 6 5 5 7 9 14 16 12 10 8 5 8 6 6 8 6 6 6 7 5 7 6 8 8 5 3 5 5 3 4 5 4 5 5 4 5 3 3 4 8 11 11 10 9 7 6 4 4 5 5 6 4 3 3 8 8 7 5 1 1 3 2 3 4 4 4 1 3 2
9 8 8 8 8 8 8 7 6 6 6 7 5 5 6 4 3 4 6 6 6 9 10 9 10 12 7 7 6 7 5 5 7 5 5 7 8 8 5 6 6 6 7 6 6 5 4 4 7 8 7 7 6 5 5 3 5 5 9 10 10 9 6 5 6 5 5 6 5 6 1 2 9 8 6 4 5 2 4 4 1 1 2 5 3 2 2
9 9 8 9 9 9 9 8 7 6 6 7 6 6 6 4 5 5 4 6 6 9 12 14 11 8 7 4 5 7 7 6 7 6 6 5 3 4 6 7 7 7 6 5 4 4 5 4 7 4 6 6 5 0 4 2 6 3 5 7 7 7 5 5 7 7 7 8 6 6 4 1 9 7 6 6 2 1 3 3 2 3 5 4 3 4 3
9 9 9 10 10 10 11 10 9 7 6 7 7 7 9 8 6 6 6 6 7 8 7 11 10 12 13 13 7 7 7 6 7 5 4 5 6 8 8 6 3 4 8 6 5 4 5 5 7 7 7 4 6 3 3 5 5 6 10 8 9 7 6 4 5 8 7 6 7 5 5 4 5 6 6 6 3 3 1 4 1 1 1 1 3 2 4
9 9 9 10 10 10 12 11 10 8 7 7 7 9 7 7 8 8 8 8 6 12 11 13 11 14 12 12 9 7 7 8 7 6 3 4 2 7 4 4 7 6 6 4 4 4 5 5 7 6 6 6 2 2 3 7 6 7 7 8 6 5 4 5 6 6 6 4 7 4 8 3 4 7 5 4 3 3 3 5 5 0 3 1 3 3 4
9 9 9 9 8 9 12 11 10 9 8 8 9 8 9 8 9 9 9 8 5 8 10 13 15 16 14 15 13 14 12 10 6 7 6 7 7 2 6 4 5 6 4 4 6 6 4 5 9 5 5 6 3 2 4 5 7 10 11 6 7 6 6 4 5 6 5 6 6 3 3 7 6 8 2 7 4 5 1 4 3 1 4 4 5 3 5
10 9 9 10 10 8 8 9 9 9 9 9 10 8 9 7 8 8 8 8 8 7 6 11 13 14 15 15 14 13 14 12 8 6 7 4 5 5 4 4 4 4 4 5 6 5 6 6 4 5 5 5 4 5 4 2 5 2 7 6 6 8 9 4 4 4 5 2 3 4 5 5 6 5 3 3 2 1 3 3 4 5 4 2 3 8 2
11 10 10 11 12 12 11 10 10 10 11 10 10 9 9 7 7 7 6 7 7 8 9 10 12 15 15 17 16 14 15 11 9 8 6 5 4 5 6 6 4 3 3 3 6 7 7 4 4 6 7 6 6 7 8 7 4 5 4 8 6 3 6 3 5 6 6 10 9 3 2 6 6 5 4 5 2 4 5 2 4 5 6 1 8 6 2
11 11 10 10 12 13 12 11 11 11 12 13 12 9 9 9 8 5 6 5 4 3 6 10 9 10 12 15 14 13 15 14 12 11 7 5 4 3 6 3 5 3 4 2 5 5 6 5 6 5 6 7 6 6 6 5 5 7 7 5 8 9 8 8 6 5 4 4 6 8 7 8 9 6 6 7 5 5 3 6 6 7 3 6 5 3 4
11 11 11 10 11 12 11 10 11 12 13 14 13 11 9 8 8 8 7 3 2 2 5 3 10 14 16 17 17 18 15 12 11 13 12 10 9 8 6 4 1 2 4 5 4 5 3 5 7 6 6 6 4 5 5 5 6 4 6 6 6 7 11 7 7 8 6 6 4 4 3 2 3 5 7 10 10 9 9 6 4 3 4 2 5 4 1
12 12 12 12 10 10 11 10 11 12 13 14 13 9 9 10 7 8 7 6 5 3 4 7 11 12 14 15 17 16 17 16 16 17 15 14 13 11 11 8 4 4 4 4 0 3 3 3 5 6 6 4 4 6 7 7 8 2 4 5 4 6 2 4 3 6 7 9 12 11 8 10 9 8 8 6 4 4 8 7 5 7 5 3 7 5 5
13 12 12 12 12 12 12 11 11 12 13 13 11 10 9 9 10 9 10 9 6 5 7 10 10 10 11 17 15 15 16 16 16 16 15 15 15 12 10 8 7 6 6 5 4 2 2 4 5 9 7 7 4 8 8 8 7 7 6 6 9 5 8 4 4 5 5 6 5 5 6 5 6 9 11 9 7 5 3 2 7 7 9 7 6 7 4
13 13 13 13 13 13 12 12 12 11 12 13 10 8 8 9 9 9 11 11 11 7 3 4 6 7 14 15 14 16 15 14 15 16 15 15 15 13 12 11 9 8 7 5 2 2 4 6 9 7 7 8 8 7 8 8 8 9 10 9 6 8 8 7 6 6 6 6 5 5 4 6 5 4 2 4 3 4 3 4 6 6 8 6 6 8 8
13 14 15 15 14 14 12 11 11 11 11 11 7 7 9 10 9 10 12 11 9 8 8 8 8 9 6 7 14 12 15 15 14 15 15 15 15 14 12 12 10 8 8 6 4 3 4 5 6 7 7 2 4 5 6 7 7 9 10 11 11 11 8 8 10 10 10 5 6 9 3 5 2 4 2 7 5 7 10 6 4 7 6 7 8 8 8
14 15 15 15 14 14 13 11 11 10 11 8 6 6 7 7 10 11 11 10 9 7 6 6 8 4 6 8 13 14 11 14 15 15 16 15 14 13 12 11 10 9 7 5 4 5 4 4 4 8 8 7 5 5 7 9 10 11 12 13 12 11 13 11 9 9 8 6 6 4 3 4 5 3 4 1 4 5 2 4 8 7 6 8 8 6 7
14 14 14 14 14 13 13 11 10 10 10 7 6 4 5 7 6 12 13 11 8 6 2 2 8 5 7 10 12 17 18 13 11 12 14 14 12 12 11 10 10 10 5 5 5 6 3 5 4 8 9 10 6 6 9 11 11 12 13 15 11 13 14 13 10 10 10 10 10 9 9 8 8 8 7 7 7 8 7 3 4 3 4 8 9 10 8
14 14 14 14 15 14 13 11 10 10 7 9 11 8 2 1 4 5 12 11 7 4 1 1 2 3 5 5 9 12 15 14 11 9 9 10 13 11 11 11 9 10 7 6 5 4 7 5 8 9 9 6 4 8 11 13 12 12 11 14 14 11 8 9 9 9 11 11 10 10 11 11 9 9 7 9 11 8 7 8 8 8 2 4 7 5 7
15 15 15 15 14 14 14 12 12 10 7 9 12 17 18 20 12 9 12 10 7 3 2 1 3 1 2 3 5 11 14 10 9 8 10 10 11 10 10 10 10 9 8 5 5 5 7 5 7 10 11 7 5 5 11 14 14 12 14 14 15 14 13 10 10 10 10 9 9 10 10 10 10 12 11 9 6 7 9 9 10 6 7 7 7 9 9
16 15 15 14 14 14 14 13 11 11 10 8 10 9 10 14 10 7 8 9 3 3 3 3 2 4 4 4 9 6 10 11 8 8 8 9 9 9 8 9 9 6 7 9 5 5 6 7 7 8 7 8 8 7 11 15 15 16 15 15 15 15 15 14 10 11 8 8 8 10 11 10 8 8 9 11 11 10 10 9 10 10 10 9 9 10 9
15 15 13 13 13 14 15 13 8 9 9 7 7 6 7 10 10 8 9 8 5 3 3 3 2 3 4 4 8 8 6 10 11 10 8 6 8 10 8 7 5 7 5 7 5 5 6 6 7 7 9 7 7 8 9 14 15 15 15 16 16 16 15 14 14 12 12 11 10 10 10 11 12 10 9 10 11 12 12 10 10 10 9 10 10 10 9
15 13 12 13 13 12 10 10 9 7 9 9 8 5 8 9 11 9 9 9 5 3 4 4 5 9 5 8 8 5 6 10 9 7 7 4 8 8 8 5 6 7 5 6 6 8 7 7 6 11 6 8 10 10 13 15 16 16 16 15 14 14 14 15 13 14 14 11 11 10 12 11 12 12 11 11 11 12 13 12 13 13 14 12 12 10 9
14 13 12 11 8 6 8 8 6 10 7 4 7 7 12 10 5 7 8 8 5 2 4 6 9 11 12 8 2 4 6 8 8 8 7 7 6 3 6 4 7 2 4 5 5 6 9 8 8 8 8 12 12 14 16 16 16 16 16 15 14 13 14 13 13 13 14 14 14 13 12 13 12 11 11 12 12 10 11 13 12 12 12 11 11 11 10
14 14 10 8 5 5 6 7 6 5 10 10 11 4 5 5 3 2 3 5 4 4 4 3 8 8 9 11 10 3 4 6 4 5 5 5 5 4 3 4 5 3 8 6 7 9 6 6 7 10 10 14 16 17 17 17 16 16 15 14 13 13 13 13 13 13 14 14 14 14 14 13 13 12 12 13 13 13 11 11 11 11 11 10 10 10 11
14 11 9 7 6 7 5 3 9 14 11 6 6 2 2 2 3 3 3 3 3 7 5 8 8 7 10 12 11 7 7 3 5 7 7 5 5 4 4 7 4 5 6 5 7 9 8 7 6 9 13 14 16 19 19 18 17 15 15 14 14 14 14 14 13 14 13 12 11 11 11 11 13 13 12 12 12 12 12 12 12 12 11 12 12 10 10
9 9 6 6 10 8 6 5 20 13 6 5 5 2 2 2 5 4 3 4 3 5 5 10 7 9 11 12 11 12 10 9 7 8 7 6 3 2 3 3 3 4 7 9 4 8 7 8 6 8 13 13 15 15 15 16 17 17 17 17 18 17 15 14 14 13 13 12 12 12 12 12 12 12 12 12 12 12 12 12 12 11 11 12 11 10 9
9 7 7 8 8 8 6 7 7 6 4 2 2 1 1 3 4 2 3 5 7 5 6 6 8 10 10 11 11 11 5 6 7 2 4 5 2 3 2 2 1 3 5 7 3 4 4 6 7 11 12 11 12 14 15 16 17 16 15 16 16 15 17 17 16 15 14 13 13 13 13 13 13 13 11 11 11 11 11 10 12 12 12 13 11 10 9
8 7 3 4 5 3 4 5 2 2 2 2 3 5 5 3 3 4 3 8 10 4 9 10 13 13 13 13 12 9 4 4 5 2 1 5 3 4 2 2 1 3 3 3 5 5 5 7 8 10 10 11 12 11 11 12 10 13 17 17 16 14 15 16 16 16 16 15 13 12 12 13 14 12 11 11 12 11 10 10 10 11 12 11 11 12 12
8 8 3 3 2 2 3 3 2 2 4 4 3 4 5 7 7 8 7 4 4 8 7 10 9 8 9 11 11 9 3 1 2 3 4 3 0 2 3 3 2 6 3 2 4 5 8 8 9 10 8 10 10 11 13 15 15 14 11 9 8 9 11 12 13 14 14 15 15 14 12 12 13 13 11 11 11 12 11 10 10 10 10 11 12 11 10
7 6 5 2 3 3 4 7 3 2 4 3 7 10 9 9 10 9 6 8 8 9 9 13 13 14 12 11 8 4 3 2 1 1 3 2 2 3 2 3 4 2 0 4 4 8 7 5 10 10 10 9 9 13 13 13 12 10 10 10 10 11 10 11 12 12 13 12 13 13 13 13 13 13 13 12 11 12 11 10 9 8 8 10 11 11 11
6 3 3 3 3 1 4 4 3 4 7 9 6 10 9 13 12 13 13 8 8 11 12 11 12 15 14 11 8 5 3 3 3 4 3 3 2 3 3 2 2 3 5 8 6 7 5 9 11 11 12 11 10 10 10 11 11 10 9 9 10 9 8 10 12 12 11 11 12 12 13 13 13 13 12 13 12 11 11 10 10 9 9 7 7 8 8
5 5 5 5 6 4 4 4 5 8 7 7 9 12 15 15 13 13 10 8 10 11 13 14 14 14 12 9 7 5 4 4 6 5 4 2 3 5 3 1 2 5 6 7 9 12 10 12 10 11 11 11 12 14 14 12 11 11 10 12 11 10 11 11 11 11 10 10 10 11 11 11 12 12 12 12 12 12 11 10 9 10 10 10 9 9 8
3 3 3 3 5 5 3 7 10 7 9 12 15 15 15 15 14 12 10 12 13 11 12 13 14 14 11 10 4 2 4 4 4 4 4 5 5 1 2 3 6 5 8 11 9 6 9 10 10 8 9 11 12 11 10 11 10 10 10 10 7 10 11 11 11 11 10 11 11 11 10 11 11 12 11 12 12 11 11 10 9 9 9 9 9 8 8
4 2 2 5 6 6 14 11 9 9 10 12 13 14 14 12 13 14 13 12 10 12 14 11 6 7 9 6 5 6 6 5 4 4 3 1 1 2 3 4 5 5 5 6 7 9 10 8 8 10 12 10 9 9 9 8 8 8 9 9 9 10 11 11 11 11 11 12 11 10 10 11 11 11 12 12 11 11 11 11 10 9 8 7 8 7 8
2 3 6 6 4 5 8 10 12 13 13 12 12 12 14 16 16 14 10 7 7 9 10 12 10 9 4 4 3 3 3 3 4 3 3 2 3 6 5 6 7 10 5 6 10 9 8 10 11 12 10 8 8 9 10 10 10 10 11 10 10 11 10 10 11 11 11 11 10 10 10 10 10 11 11 12 12 11 11 11 10 8 8 9 9 9 9
4 4 4 7 8 10 10 9 13 16 14 13 12 12 12 15 15 14 10 7 7 7 2 4 4 4 3 4 2 2 2 2 2 2 4 8 6 3 4 9 8 6 5 9 9 7 8 9 9 11 11 9 8 9 8 8 6 7 7 8 10 11 11 11 11 11 11 11 11 10 11 10 11 11 12 13 12 10 10 10 10 9 9 9 10 10 10
2 3 6 9 12 9 9 13 12 12 14 15 14 13 12 11 9 10 8 9 8 9 5 7 4 3 4 2 3 4 3 3 3 5 4 7 6 7 10 9 5 8 8 5 6 8 9 11 12 12 12 9 7 7 8 8 8 8 9 10 10 10 10 11 12 11 11 11 11 10 11 11 11 11 10 10 11 10 10 9 9 9 9 9 9 10 9
4 8 10 11 13 13 13 12 11 11 10 10 12 10 10 10 6 5 4 7 9 9 8 5 5 4 3 5 4 2 3 3 3 4 7 6 5 10 10 8 10 8 5 5 7 9 11 12 11 10 9 7 7 8 8 9 8 8 9 10 10 10 11 11 11 11 11 11 11 11 11 11 11 11 11 11 10 10 11 9 9 9 8 8 8 8 8
Wind_Direction
307 304 304 304 301 302 305 305 308 318 339 314 319 325 271 230 257 110 178 142 239 250 266 268 260 250 266 133 236 171 221 263 254 269 242 220 227 262 250 270 280 12 304 311 299 34 306 300 332 11 302 295 276 55 293 19 300 310 38 317 71 324 278 292 276 306 277 276 60 53 10 326 269 204 294 192 179 184 212 194 265 288 295 350 348 282 131
305 304 305 302 297 298 301 303 304 308 319 305 314 284 264 268 273 208 161 166 191 240 251 267 263 269 287 297 301 265 151 199 249 244 258 266 177 275 277 304 72 287 241 269 297 44 360 168 322 294 27 338 339 297 273 343 305 358 29 329 49 287 56 333 322 296 290 117 62 57 328 304 283 94 228 234 221 203 225 207 212 257 94 205 236 317 74
300 304 304 300 298 303 302 297 294 288 267 287 306 287 302 303 282 269 211 176 197 226 244 260 287 310 301 303 268 285 225 172 289 277 266 290 288 224 244 266 174 210 89 305 299 286 236 302 329 307 341 208 267 301 310 63 299 45 49 349 319 289 312 322 330 330 334 335 336 352 331 334 346 312 335 295 303 287 264 265 15 291 303 310 320 339 308
302 304 301 293 288 289 295 296 289 269 258 281 263 264 278 232 257 212 207 191 198 246 261 282 293 296 296 307 297 275 263 226 199 242 261 256 253 254 262 253 268 266 217 277 296 285 254 207 281 319 309 291 248 266 284 147 307 67 24 322 290 296 298 290 310 319 321 343 319 48 313 278 297 349 310 294 284 280 267 269 216 266 313 307 84 0 36
301 303 300 292 287 289 291 292 285 248 241 21 280 281 255 307 267 266 238 166 231 247 219 225 227 244 246 276 271 267 275 293 223 164 260 209 263 255 263 270 251 269 341 303 290 265 254 198 234 257 285 286 299 77 277 294 95 84 303 233 265 266 282 304 285 290 307 309 324 346 306 301 311 302 315 316 294 288 282 271 275 172 257 260 147 76 311
299 302 301 295 284 280 282 285 279 224 216 211 264 260 226 243 255 253 343 285 212 206 226 244 235 247 238 250 269 275 270 240 249 159 244 274 224 256 226 249 243 256 240 256 260 279 291 279 269 279 263 290 257 266 227 273 113 149 277 184 247 313 282 280 308 285 291 300 302 311 288 297 305 287 290 288 277 281 276 264 276 311 266 313 170 152 201
294 296 296 295 290 278 272 263 255 204 182 192 250 251 242 255 292 295 22 283 265 262 318 345 303 289 256 256 257 271 283 296 282 224 228 233 262 230 255 235 251 252 241 238 265 280 286 271 292 269 263 256 303 279 263 236 148 221 242 285 337 319 260 300 304 300 290 285 286 277 284 295 294 282 284 291 285 280 275 269 289 282 286 297 316 264 350
296 301 301 295 276 267 257 258 230 175 137 225 243 239 273 246 299 289 310 270 279 275 295 281 254 241 215 260 259 271 259 258 274 267 236 240 247 240 247 244 237 249 250 244 251 262 276 299 283 302 318 292 256 291 301 323 225 257 266 279 166 250 328 34 296 291 293 273 261 271 265 275 282 302 303 295 289 291 254 284 260 263 262 286 294 311 164
296 300 306 309 297 264 254 240 210 170 163 218 221 250 234 269 299 327 295 283 248 241 235 249 258 266 246 240 238 245 251 259 262 258 236 245 248 238 251 255 255 244 250 257 264 262 274 279 280 279 268 275 237 257 309 268 276 275 274 205 227 179 295 298 292 292 289 278 263 268 256 257 272 289 285 274 309 282 12 282 30 318 319 322 306 255 78
294 300 306 298 288 276 267 245 197 179 197 254 237 247 266 267 273 259 274 260 295 301 273 238 234 241 247 258 247 238 262 264 249 262 249 248 232 244 271 257 264 255 260 261 269 329 300 281 298 285 274 262 252 231 227 251 278 274 247 235 263 244 271 280 288 291 291 300 286 292 297 286 277 242 207 301 186 355 302 240 165 283 4 304 273 66 133
296 302 304 296 287 283 271 245 195 182 176 213 237 250 263 283 303 283 251 264 264 258 255 249 238 256 257 225 257 248 256 259 253 223 240 263 226 206 235 244 242 270 253 283 299 308 274 257 255 254 253 269 267 213 233 242 240 234 251 256 247 264 266 278 284 275 291 298 326 320 297 272 321 82 68 345 330 354 310 330 339 297 174 280 345 111 161
291 295 302 298 289 285 274 237 197 183 191 226 262 284 303 323 300 269 254 249 251 260 256 248 249 231 231 256 258 268 264 265 287 322 312 281 327 292 224 228 217 254 13 272 235 214 234 284 290 292 287 272 282 289 258 243 242 244 234 243 265 259 263 270 274 283 282 303 290 266 256 323 83 159 81 282 335 297 306 319 290 295 212 209 278 276 218
279 287 294 296 291 280 271 230 198 190 206 234 249 269 306 329 306 287 273 250 250 242 238 247 248 250 246 249 252 268 272 283 286 299 286 288 254 245 264 249 226 248 52 264 264 279 278 295 275 250 248 254 239 229 237 242 241 237 249 238 240 244 256 271 270 279 283 273 266 268 22 192 192 123 113 78 288 169 287 279 273 231 228 194 246 231 224
275 275 281 289 295 295 289 219 197 199 214 231 257 264 297 320 314 298 265 264 257 260 268 271 260 254 249 246 246 250 258 260 274 270 277 245 254 249 249 252 262 233 253 270 267 292 296 237 260 237 215 208 253 254 244 240 231 230 225 229 233 255 268 269 283 287 285 299 293 299 2 200 138 167 179 203 334 40 320 316 314 22 99 136 255 152 286
274 275 273 275 278 285 281 233 203 208 219 214 246 273 278 285 295 299 312 297 278 288 268 247 248 263 272 267 257 259 256 258 252 247 237 231 242 241 244 232 267 245 213 257 277 230 235 274 262 256 247 223 242 242 212 233 215 219 226 224 223 229 245 211 244 246 246 262 277 277 257 277 156 102 108 72 96 349 324 287 289 247 231 113 197 171 263
264 266 269 268 264 261 261 252 219 212 217 202 231 253 271 281 295 295 287 289 302 272 245 259 281 309 304 268 262 258 253 256 252 252 241 232 247 229 227 214 224 241 237 187 262 270 263 273 277 275 270 256 229 282 227 234 246 207 205 214 221 222 232 242 249 278 300 290 278 270 287 328 142 146 131 121 166 349 329 302 283 72 110 134 24 270 221
255 259 257 256 254 248 241 242 237 222 213 186 236 250 263 245 254 294 285 269 251 251 290 297 341 320 287 275 241 252 250 259 253 245 248 227 210 232 220 216 213 222 235 245 239 233 226 232 252 252 238 236 235 233 265 228 257 188 181 216 217 219 216 226 235 250 255 275 274 279 262 309 99 136 148 136 102 148 243 278 97 249 139 108 193 235 236
248 251 254 256 253 243 231 228 232 228 220 204 230 260 267 258 241 262 255 256 262 264 259 276 295 299 269 283 312 341 313 262 252 260 263 272 271 220 220 215 201 198 247 240 243 257 261 254 253 251 267 269 292 354 249 261 235 212 214 202 213 207 223 211 237 240 235 227 263 286 279 41 122 134 131 118 172 248 266 293 92 83 50 31 23 269 215
245 247 251 257 256 242 225 214 215 220 221 211 228 253 256 261 268 242 259 260 249 251 261 279 285 283 286 292 288 285 276 306 307 281 252 230 214 221 224 217 222 202 200 226 224 251 249 248 252 262 267 224 160 231 229 227 245 220 214 206 215 215 222 219 223 241 248 246 255 253 275 113 158 123 136 128 183 223 285 94 184 83 177 141 312 63 231
243 244 249 256 258 245 218 203 201 212 221 209 223 244 263 244 227 227 226 239 249 260 262 267 271 280 298 293 277 267 257 245 239 256 280 273 114 184 175 216 179 223 205 240 254 233 246 247 253 255 245 258 214 2 234 245 260 256 238 208 228 207 213 223 214 235 248 259 254 245 258 135 197 135 153 165 235 30 109 170 137 301 114 181 148 257 151
241 243 246 250 251 245 217 190 193 206 221 211 213 244 252 244 244 224 225 240 267 267 263 254 264 275 283 284 296 312 295 270 296 285 315 327 345 279 209 211 208 209 199 186 231 218 223 241 246 247 258 268 128 225 262 288 248 226 240 232 238 170 225 218 230 213 241 229 234 267 42 125 147 154 218 176 244 50 98 342 108 163 206 171 166 178 161
238 241 243 241 236 224 211 198 198 209 218 222 217 236 249 247 237 231 227 228 241 246 274 313 316 304 295 286 284 282 299 304 301 314 306 313 302 270 282 257 228 204 240 228 223 264 233 247 275 275 256 249 171 228 216 229 258 41 206 198 236 178 227 235 272 182 232 260 63 145 178 131 165 221 324 7 30 90 19 31 349 309 81 10 270 156 193
234 238 242 239 231 220 217 215 214 216 219 221 220 235 242 242 232 224 221 230 245 273 277 278 286 293 288 282 278 277 278 278 277 262 254 267 281 266 256 253 268 282 321 326 294 286 287 306 276 279 266 257 268 280 257 246 266 161 219 184 268 126 235 250 240 259 265 275 266 252 179 175 194 219 269 291 176 238 167 245 216 215 133 120 79 91 72
231 231 236 234 231 228 226 223 222 222 222 221 222 237 236 241 254 213 211 240 252 281 275 244 251 254 259 268 276 263 249 251 254 263 271 274 269 276 262 271 32 257 238 337 25 327 315 315 295 318 303 302 289 255 260 254 248 264 253 209 208 230 208 223 234 237 240 248 203 220 226 218 201 220 216 207 208 265 292 198 205 297 212 138 121 336 119
229 226 228 226 228 229 232 231 229 230 227 224 224 238 258 257 248 227 208 195 205 210 262 264 223 245 256 259 267 267 259 255 248 237 233 234 245 253 254 118 168 349 304 315 328 315 299 291 293 266 266 257 262 286 297 273 258 239 268 251 247 226 185 218 224 249 233 261 256 153 207 298 287 252 225 205 199 200 191 235 189 207 300 135 136 151 159
228 225 224 226 227 229 232 230 230 230 230 226 225 234 231 238 243 228 233 241 250 243 256 259 266 256 253 260 249 245 247 248 245 236 224 225 229 235 257 274 253 171 246 281 241 246 276 275 279 279 276 296 298 269 250 249 297 281 245 292 87 62 68 227 195 246 259 248 260 260 202 192 197 207 243 273 279 205 189 221 227 171 279 234 128 150 213
227 225 223 222 226 233 236 236 234 235 229 224 225 233 239 247 240 221 212 212 223 255 241 259 270 267 262 261 266 262 240 232 238 248 236 220 224 225 234 236 250 252 241 233 233 280 275 265 277 272 258 265 284 276 296 281 262 271 261 239 142 199 217 233 227 249 251 257 254 222 252 244 219 196 195 211 194 201 327 244 205 205 202 210 167 147 306
226 225 223 222 225 229 231 230 230 230 228 226 231 239 244 244 246 242 235 226 220 244 295 294 286 327 337 289 265 264 261 232 228 230 235 229 219 226 224 221 224 232 233 240 233 188 219 245 244 257 278 281 287 279 273 271 277 276 266 258 220 214 217 210 222 216 242 233 235 173 211 260 117 63 102 175 173 126 176 256 284 234 203 217 188 164 189
226 226 225 227 229 230 230 228 230 230 225 229 240 249 249 241 238 231 232 233 238 255 271 282 293 293 281 322 322 276 248 245 228 225 231 232 231 222 221 224 224 223 228 228 237 254 244 241 253 252 247 355 320 276 275 260 255 252 247 260 267 274 291 290 304 301 276 266 8 334 282 247 239 165 193 183 119 186 187 181 254 268 204 210 227 199 197
228 230 230 228 228 230 231 229 222 223 222 228 229 243 250 237 214 217 215 223 222 231 245 255 265 260 305 294 285 299 279 237 226 222 221 229 231 228 223 220 224 224 225 223 209 226 234 256 252 252 254 138 234 272 268 269 264 260 256 241 238 252 258 257 250 260 275 302 294 281 272 234 275 194 112 282 185 250 18 156 211 242 219 202 212 198 195
227 229 229 227 228 229 228 226 219 216 215 227 218 217 213 239 200 189 198 207 215 220 236 243 254 327 301 273 277 276 281 276 237 227 226 226 228 228 227 223 222 217 216 218 221 230 230 234 242 246 256 253 253 251 258 256 255 255 262 270 249 222 225 236 242 244 260 271 273 280 289 264 220 237 236 188 201 191 220 258 308 264 226 200 210 196 194
226 227 227 226 227 227 223 221 221 213 218 223 217 207 172 335 7 284 193 182 180 203 159 213 282 254 266 280 263 264 266 272 250 221 220 218 225 221 232 221 226 213 218 218 217 225 219 232 242 247 247 234 237 255 254 253 253 253 262 274 290 289 269 257 246 230 225 228 241 251 251 258 269 254 250 186 187 185 181 187 214 210 232 257 218 219 201
224 225 226 226 225 224 223 223 223 221 227 247 275 289 289 284 281 305 186 173 165 216 131 209 245 254 239 257 266 240 244 251 247 216 219 201 230 212 227 220 228 232 189 207 209 226 222 224 221 236 236 245 258 254 252 249 250 261 262 266 271 275 270 253 252 244 235 228 210 237 244 240 234 238 258 288 267 224 201 207 221 203 173 212 223 204 224
226 225 225 223 223 222 225 226 229 234 249 255 251 237 242 255 253 276 206 172 162 163 178 213 207 222 258 311 286 254 221 231 234 204 223 195 216 216 220 217 215 232 203 218 209 235 227 238 233 238 241 232 234 246 247 249 254 256 253 252 255 262 270 270 251 253 252 251 246 229 236 248 256 244 229 225 234 254 267 214 204 198 190 192 217 218 207
224 225 223 221 220 223 225 226 231 223 231 234 248 247 237 222 226 233 214 184 160 184 196 216 249 242 224 236 246 262 238 230 223 207 223 206 194 219 208 222 199 219 210 194 225 217 235 226 229 237 232 227 232 234 243 252 250 249 249 250 250 255 251 245 248 243 236 226 226 238 229 226 238 241 234 221 223 226 229 232 217 220 204 188 201 218 208
223 219 220 217 219 220 230 227 228 225 225 224 224 196 203 210 198 203 218 232 228 179 188 208 190 226 230 236 232 236 235 237 231 219 225 230 201 216 229 214 228 206 225 199 226 207 223 213 227 239 230 233 229 231 243 244 246 246 245 246 243 244 249 251 252 249 245 238 223 222 227 223 223 231 232 240 235 224 212 216 217 210 208 198 195 207 211
213 213 210 213 213 219 227 234 216 217 233 200 193 191 190 195 223 210 204 230 245 311 224 189 209 216 212 230 249 246 234 235 207 217 207 213 209 192 216 204 229 198 202 223 217 227 228 226 239 241 224 233 241 242 248 250 251 250 246 242 242 244 249 250 246 248 256 246 227 222 222 223 221 220 227 232 238 228 214 213 225 235 236 219 191 193 207
204 205 204 203 199 217 233 220 227 179 160 125 118 123 195 186 192 199 204 212 210 200 226 224 228 216 201 219 230 153 213 235 222 235 210 204 216 202 202 224 211 205 229 217 221 209 232 225 231 242 246 242 248 247 244 244 245 246 252 258 258 255 249 246 244 238 234 239 235 225 219 221 229 225 222 222 228 229 220 220 222 222 224 229 221 199 200
198 203 206 209 197 216 214 230 160 147 158 158 173 182 182 173 191 206 203 184 177 208 202 217 215 206 220 217 226 210 225 255 249 230 236 190 216 196 187 208 195 214 231 231 213 183 230 221 237 239 249 243 246 245 245 247 250 254 255 250 243 242 245 248 246 242 234 229 236 227 221 221 222 228 227 227 224 227 226 222 225 226 218 219 225 213 208
197 200 198 201 216 216 221 148 142 149 151 181 189 202 208 186 207 218 148 188 204 218 176 218 194 201 217 229 226 224 205 219 222 227 231 206 182 235 185 230 207 200 223 224 212 163 225 229 212 231 245 240 244 246 246 244 242 240 239 242 246 248 244 239 243 246 246 236 224 228 224 224 226 227 224 223 226 226 221 222 220 222 225 224 233 224 206
199 201 200 212 206 213 208 161 167 150 154 156 128 203 211 203 216 210 176 209 204 210 198 210 157 200 201 224 230 243 211 223 239 252 271 242 219 200 151 211 326 233 222 221 205 216 210 224 232 235 243 235 239 242 242 240 240 239 234 230 232 235 242 244 237 239 244 241 228 220 222 229 228 223 223 227 225 227 231 225 221 219 220 223 223 230 226
189 198 203 203 215 204 141 162 182 162 152 193 176 192 192 215 185 213 202 204 206 200 197 189 203 199 199 199 216 216 240 232 250 184 235 238 178 216 191 194 217 244 236 208 233 234 233 237 231 239 237 247 252 258 261 269 258 229 220 220 218 218 226 231 236 233 231 238 238 228 221 221 228 227 220 219 227 227 222 222 226 221 220 219 220 226 230
161 183 171 187 144 181 171 210 197 199 176 187 182 197 176 210 200 201 204 225 198 207 193 180 203 184 196 191 213 202 199 137 213 226 208 223 116 215 209 208 220 227 231 269 233 238 230 235 244 249 247 243 240 245 249 249 248 251 249 233 214 196 213 229 232 234 233 231 232 235 230 221 220 226 224 222 222 226 224 222 218 220 216 219 217 219 225
172 177 196 217 195 205 170 217 162 204 226 194 189 205 180 203 202 199 214 194 178 207 187 183 185 186 197 189 207 166 109 260 225 221 246 205 203 195 179 223 210 284 245 225 239 242 247 246 247 250 243 244 244 244 243 242 241 234 231 237 240 222 210 224 232 237 236 234 233 229 228 227 224 218 220 226 225 224 222 222 221 226 223 211 212 210 213
156 179 195 184 206 205 162 209 157 204 209 203 205 214 204 211 207 199 211 185 184 201 180 192 185 190 198 178 195 196 161 173 143 210 209 183 221 217 206 221 169 206 226 236 227 241 236 247 248 251 244 234 237 254 266 272 275 253 225 235 247 246 226 225 229 231 234 234 234 229 225 222 223 222 218 217 223 226 223 220 214 210 220 227 227 221 214
184 174 161 182 195 201 206 214 156 201 219 214 210 211 217 219 217 213 204 194 202 195 192 188 193 191 195 175 184 180 166 187 178 203 203 194 207 216 198 258 242 228 225 227 230 232 235 242 243 246 248 249 245 242 242 243 246 257 224 200 205 215 218 227 232 233 231 230 229 228 224 219 219 220 219 216 217 219 219 220 210 206 205 212 218 224 224
183 190 202 194 215 204 202 228 204 204 201 205 215 215 219 224 222 225 209 202 215 206 199 193 196 189 180 179 173 147 182 173 194 185 189 208 204 215 178 209 222 216 222 221 224 229 236 242 252 257 254 250 247 244 244 238 222 220 251 262 205 198 211 213 217 224 224 225 224 222 220 216 216 216 219 218 213 212 211 208 208 206 208 203 205 210 223
197 157 187 201 210 191 205 217 227 228 219 220 218 220 224 223 227 223 218 216 215 206 203 182 195 186 179 163 182 179 174 184 176 196 186 206 140 231 216 217 226 219 221 228 224 226 238 245 251 250 244 241 248 259 257 255 251 251 241 235 231 223 218 215 213 218 220 219 219 218 214 212 212 211 213 216 211 204 205 202 206 206 201 200 210 212 219
208 181 197 224 223 221 223 221 222 235 232 231 223 219 218 219 220 222 217 195 209 226 203 188 183 174 164 126 139 149 188 170 183 191 137 186 201 198 191 219 207 225 213 215 234 229 236 240 241 251 247 236 239 245 246 250 244 219 212 229 232 225 223 225 222 214 212 217 216 212 212 207 206 208 208 209 211 203 199 199 199 193 188 201 209 213 208
201 216 225 220 217 234 236 227 221 229 230 231 226 228 220 223 226 218 177 163 175 219 218 63 61 114 135 128 135 169 181 174 194 170 181 198 200 205 216 231 218 215 204 214 229 236 239 246 256 257 253 233 228 240 249 244 250 277 276 247 237 229 223 226 229 218 212 212 215 213 208 200 204 206 207 205 206 203 191 193 192 192 195 205 209 206 207
221 257 234 217 223 222 212 226 222 222 221 224 223 223 225 230 222 217 198 202 152 143 164 177 133 107 124 120 146 186 207 153 192 212 211 204 197 214 216 221 207 209 224 216 237 238 241 243 246 251 252 233 213 225 238 240 237 231 232 238 244 240 234 228 229 225 214 211 214 216 214 206 202 204 203 206 200 188 188 181 189 197 204 206 206 206 201
187 211 221 221 226 236 242 253 252 244 242 242 233 225 223 229 208 214 162 129 141 182 174 157 137 130 141 185 185 156 128 166 213 194 210 219 201 214 215 210 220 221 217 220 230 241 250 249 241 241 251 238 196 201 240 261 252 237 233 229 229 239 240 232 225 225 224 215 210 212 216 220 217 203 197 201 196 189 197 193 183 198 207 211 206 202 210